| time (UTC) | temp F | wind direction | speed knots | gust knots | rain 1hr in | rain 24hr in | rain mn in | humidity % | barometer mb |
| 20260506051304 | 60 | 59 | 0.0 | 1.7 | 0.00 | 0.00 | 0.00 | 81 | 1010.4 |
| 20260506050805 | 60 | 59 | 0.0 | 0.0 | 0.00 | 0.00 | 0.00 | 81 | 1010.4 |
| 20260506050304 | 60 | 59 | 0.0 | 0.0 | 0.00 | 0.00 | 0.00 | 81 | 1010.3 |
| 20260506044804 | 61 | 61 | 0.0 | 1.7 | 0.00 | 0.00 | 0.00 | 79 | 1010.2 |
| 20260506044304 | 61 | 61 | 0.0 | 0.9 | 0.00 | 0.00 | 0.00 | 79 | 1010.1 |
| 20260506043804 | 61 | 61 | 0.0 | 1.7 | 0.00 | 0.00 | 0.00 | 78 | 1010.2 |
| 20260506043304 | 61 | 61 | 0.0 | 2.6 | 0.00 | 0.00 | 0.00 | 78 | 1010.1 |
| 20260506042305 | 61 | 61 | 0.0 | 0.0 | 0.00 | 0.00 | 0.00 | 78 | 1010.1 |
| 20260506041804 | 61 | 61 | 0.0 | 0.9 | 0.00 | 0.00 | 0.00 | 78 | 1010.1 |
| 20260506041304 | 61 | 61 | 0.9 | 4.3 | 0.00 | 0.00 | 0.00 | 77 | 1010.1 |
| 20260506040304 | 61 | 61 | 1.7 | 2.6 | 0.00 | 0.00 | 0.00 | 77 | 1010.1 |
| 20260506035804 | 61 | 61 | 0.9 | 1.7 | 0.00 | 0.00 | 0.00 | 78 | 1010.1 |
| 20260506035306 | 61 | 61 | 0.9 | 1.7 | 0.00 | 0.00 | 0.00 | 78 | 1010.1 |
| 20260506034804 | 61 | 61 | 0.0 | 1.7 | 0.00 | 0.00 | 0.00 | 78 | 1010.1 |
| 20260506034305 | 61 | 61 | 0.0 | 0.9 | 0.00 | 0.00 | 0.00 | 78 | 1010.1 |
| 20260506033304 | 61 | 61 | 0.0 | 0.0 | 0.00 | 0.00 | 0.00 | 78 | 1010.1 |
| 20260506032804 | 61 | 61 | 0.0 | 0.0 | 0.00 | 0.00 | 0.00 | 78 | 1010.2 |
| 20260506032306 | 61 | 61 | 0.9 | 1.7 | 0.00 | 0.00 | 0.00 | 78 | 1010.1 |
| 20260506031804 | 61 | 61 | 0.9 | 1.7 | 0.00 | 0.00 | 0.00 | 77 | 1010.1 |
| 20260506031304 | 61 | 61 | 0.0 | 0.9 | 0.00 | 0.00 | 0.00 | 78 | 1010.1 |
| 20260506030803 | 61 | 61 | 0.9 | 1.7 | 0.00 | 0.00 | 0.00 | 77 | 1010.1 |
| 20260506025804 | 62 | 61 | 0.0 | 0.9 | 0.00 | 0.00 | 0.00 | 77 | 1010.1 |
| 20260506024304 | 62 | 61 | 0.0 | 0.0 | 0.00 | 0.00 | 0.00 | 76 | 1010.2 |
| 20260506023804 | 62 | 61 | 0.0 | 2.6 | 0.00 | 0.00 | 0.00 | 76 | 1010.2 |
| 20260506023304 | 62 | 62 | 0.9 | 1.7 | 0.00 | 0.00 | 0.00 | 75 | 1010.2 |
| 20260506022804 | 62 | 61 | 0.0 | 0.0 | 0.00 | 0.00 | 0.00 | 76 | 1010.2 |
| 20260506022306 | 62 | 61 | 0.0 | 1.7 | 0.00 | 0.00 | 0.00 | 75 | 1010.2 |
| 20260506021804 | 62 | 61 | 0.0 | 1.7 | 0.00 | 0.00 | 0.00 | 76 | 1010.2 |
| 20260506021304 | 62 | 61 | 0.9 | 1.7 | 0.00 | 0.00 | 0.00 | 75 | 1010.2 |
| 20260506020805 | 62 | 61 | 0.0 | 1.7 | 0.00 | 0.00 | 0.00 | 75 | 1010.2 |
| 20260506015804 | 63 | 61 | 0.9 | 1.7 | 0.00 | 0.00 | 0.00 | 75 | 1010.1 |
| 20260506015306 | 63 | 61 | 0.9 | 1.7 | 0.00 | 0.00 | 0.00 | 76 | 1010.1 |
| 20260506014804 | 63 | 61 | 0.9 | 2.6 | 0.00 | 0.00 | 0.00 | 76 | 1010.1 |
| 20260506014304 | 63 | 61 | 0.9 | 2.6 | 0.00 | 0.00 | 0.00 | 76 | 1010.1 |
| 20260506013803 | 62 | 56 | 0.9 | 2.6 | 0.00 | 0.00 | 0.00 | 77 | 1010.1 |
| 20260506011804 | 62 | 61 | 1.7 | 4.3 | 0.00 | 0.00 | 0.00 | 77 | 1010.3 |
| 20260506011304 | 62 | 61 | 1.7 | 2.6 | 0.00 | 0.00 | 0.00 | 78 | 1010.2 |
| 20260506010804 | 62 | 61 | 1.7 | 2.6 | 0.00 | 0.00 | 0.00 | 78 | 1010.2 |
| 20260506010304 | 62 | 61 | 1.7 | 2.6 | 0.00 | 0.00 | 0.00 | 78 | 1010.2 |
| 20260506005306 | 63 | 61 | 0.9 | 2.6 | 0.00 | 0.00 | 0.00 | 77 | 1010.2 |
| 20260506004805 | 63 | 61 | 0.9 | 1.7 | 0.00 | 0.00 | 0.00 | 77 | 1010.3 |
| 20260506004304 | 63 | 61 | 0.9 | 2.6 | 0.00 | 0.00 | 0.00 | 76 | 1010.3 |
| 20260506003804 | 64 | 61 | 0.9 | 2.6 | 0.00 | 0.00 | 0.00 | 75 | 1010.4 |
| 20260506003304 | 64 | 61 | 0.9 | 2.6 | 0.00 | 0.00 | 0.00 | 75 | 1010.4 |
| 20260506002804 | 65 | 52 | 1.7 | 2.6 | 0.00 | 0.00 | 0.00 | 74 | 1010.5 |
| 20260506002306 | 65 | 60 | 0.9 | 1.7 | 0.00 | 0.00 | 0.00 | 74 | 1010.5 |
| 20260506001803 | 65 | 60 | 0.9 | 1.7 | 0.00 | 0.00 | 0.00 | 74 | 1010.5 |
| 20260506001304 | 65 | 61 | 0.9 | 2.6 | 0.00 | 0.00 | 0.00 | 73 | 1010.5 |
| 20260506000804 | 65 | 61 | 0.0 | 0.0 | 0.00 | 0.00 | 0.00 | 73 | 1010.6 |
| 20260505235804 | 66 | 61 | 1.7 | 2.6 | 0.00 | 0.00 | 0.00 | 73 | 1010.6 |
| 20260505235305 | 66 | 61 | 1.7 | 2.6 | 0.00 | 0.00 | 0.00 | 73 | 1010.6 |
| 20260505234304 | 66 | 61 | 1.7 | 2.6 | 0.00 | 0.00 | 0.00 | 73 | 1010.6 |
| 20260505233804 | 66 | 61 | 0.9 | 2.6 | 0.00 | 0.00 | 0.00 | 73 | 1010.6 |
| 20260505233304 | 66 | 56 | 2.6 | 4.3 | 0.00 | 0.00 | 0.00 | 73 | 1010.6 |
| 20260505232804 | 66 | 53 | 2.6 | 5.2 | 0.00 | 0.00 | 0.00 | 73 | 1010.5 |
| 20260505231304 | 66 | 53 | 1.7 | 6.1 | 0.00 | 0.00 | 0.00 | 72 | 1010.5 |
| 20260505230304 | 66 | 49 | 3.5 | 7.8 | 0.00 | 0.00 | 0.00 | 72 | 1010.4 |
| 20260505225804 | 66 | 55 | 4.3 | 8.7 | 0.00 | 0.00 | 0.00 | 72 | 1010.5 |
| 20260505225306 | 66 | 30 | 3.5 | 7.8 | 0.00 | 0.00 | 0.00 | 71 | 1010.5 |
| 20260505224803 | 66 | 26 | 4.3 | 10.4 | 0.00 | 0.00 | 0.00 | 71 | 1010.6 |
| 20260505224304 | 67 | 17 | 4.3 | 7.8 | 0.00 | 0.00 | 0.00 | 71 | 1010.6 |
| 20260505223804 | 67 | 25 | 3.5 | 6.1 | 0.00 | 0.00 | 0.00 | 70 | 1010.6 |
| 20260505223304 | 67 | 354 | 2.6 | 6.1 | 0.00 | 0.00 | 0.00 | 70 | 1010.6 |
| 20260505222804 | 66 | 46 | 3.5 | 8.7 | 0.00 | 0.00 | 0.00 | 70 | 1010.6 |
| 20260505222305 | 66 | 57 | 2.6 | 10.4 | 0.00 | 0.00 | 0.00 | 71 | 1010.6 |
| 20260505221804 | 66 | 63 | 3.5 | 10.4 | 0.00 | 0.00 | 0.00 | 71 | 1010.6 |
| 20260505220818 | 66 | 31 | 5.2 | 11.3 | 0.00 | 0.00 | 0.00 | 72 | 1010.6 |
| 20260505220305 | 66 | 13 | 5.2 | 8.7 | 0.00 | 0.00 | 0.00 | 72 | 1010.5 |
| 20260505215804 | 66 | 54 | 5.2 | 11.3 | 0.00 | 0.00 | 0.00 | 73 | 1010.4 |
| 20260505215305 | 66 | 46 | 4.3 | 12.2 | 0.00 | 0.00 | 0.00 | 73 | 1010.3 |
| 20260505214804 | 66 | 40 | 4.3 | 12.2 | 0.00 | 0.00 | 0.00 | 73 | 1010.3 |
| 20260505213804 | 66 | 23 | 4.3 | 12.2 | 0.00 | 0.00 | 0.00 | 75 | 1009.9 |
| 20260505213304 | 66 | 41 | 6.1 | 11.3 | 0.00 | 0.00 | 0.00 | 75 | 1009.8 |
| 20260505212804 | 67 | 41 | 6.1 | 17.4 | 0.00 | 0.00 | 0.00 | 76 | 1009.7 |
| 20260505212305 | 67 | 18 | 7.8 | 14.8 | 0.00 | 0.00 | 0.00 | 77 | 1009.7 |
| 20260505211804 | 67 | 28 | 5.2 | 12.2 | 0.00 | 0.00 | 0.00 | 77 | 1009.7 |
| 20260505211304 | 67 | 7 | 7.0 | 15.6 | 0.00 | 0.00 | 0.00 | 78 | 1009.6 |
| 20260505210804 | 68 | 15 | 8.7 | 14.8 | 0.00 | 0.00 | 0.00 | 78 | 1009.6 |
| 20260505210304 | 68 | 14 | 7.8 | 14.8 | 0.00 | 0.00 | 0.00 | 77 | 1009.6 |
| 20260505205804 | 69 | 11 | 7.8 | 15.6 | 0.00 | 0.00 | 0.00 | 77 | 1009.5 |
| 20260505205305 | 69 | 0 | 6.1 | 11.3 | 0.00 | 0.00 | 0.00 | 76 | 1009.3 |
| 20260505204803 | 69 | 19 | 6.1 | 11.3 | 0.00 | 0.00 | 0.00 | 76 | 1009.1 |
| 20260505204304 | 69 | 17 | 5.2 | 13.0 | 0.00 | 0.00 | 0.00 | 75 | 1009.0 |
| 20260505203804 | 70 | 17 | 6.1 | 10.4 | 0.00 | 0.00 | 0.00 | 74 | 1009.0 |
| 20260505203304 | 71 | 10 | 4.3 | 10.4 | 0.00 | 0.00 | 0.00 | 72 | 1008.9 |
| 20260505202803 | 71 | 24 | 4.3 | 12.2 | 0.00 | 0.00 | 0.00 | 70 | 1008.8 |
| 20260505201304 | 72 | 350 | 2.6 | 5.2 | 0.00 | 0.00 | 0.00 | 63 | 1008.7 |
| 20260505200804 | 72 | 153 | 1.7 | 2.6 | 0.00 | 0.00 | 0.00 | 63 | 1008.3 |
| 20260505195803 | 72 | 153 | 1.7 | 4.3 | 0.00 | 0.00 | 0.00 | 64 | 1008.1 |
| 20260505195305 | 72 | 153 | 0.9 | 1.7 | 0.00 | 0.00 | 0.00 | 64 | 1008.0 |
| 20260505194304 | 72 | 153 | 1.7 | 4.3 | 0.00 | 0.00 | 0.00 | 62 | 1007.8 |
| 20260505193803 | 73 | 148 | 1.7 | 4.3 | 0.00 | 0.00 | 0.00 | 61 | 1007.7 |
| 20260505193304 | 73 | 148 | 3.5 | 6.1 | 0.00 | 0.00 | 0.00 | 60 | 1007.7 |
| 20260505192804 | 73 | 145 | 5.2 | 7.0 | 0.00 | 0.00 | 0.00 | 60 | 1007.6 |
| 20260505192305 | 73 | 148 | 4.3 | 7.0 | 0.00 | 0.00 | 0.00 | 60 | 1007.5 |
| 20260505191804 | 73 | 155 | 4.3 | 7.0 | 0.00 | 0.00 | 0.00 | 61 | 1007.5 |
| 20260505191303 | 73 | 154 | 4.3 | 7.0 | 0.00 | 0.00 | 0.00 | 61 | 1007.4 |
| 20260505190304 | 73 | 158 | 4.3 | 7.0 | 0.00 | 0.00 | 0.00 | 60 | 1007.3 |
| 20260505185804 | 73 | 156 | 2.6 | 7.0 | 0.00 | 0.00 | 0.00 | 61 | 1007.3 |
| 20260505185305 | 74 | 144 | 2.6 | 7.0 | 0.00 | 0.00 | 0.00 | 61 | 1007.2 |
| 20260505184803 | 74 | 141 | 5.2 | 7.8 | 0.00 | 0.00 | 0.00 | 60 | 1007.2 |
| 20260505184303 | 74 | 147 | 3.5 | 7.0 | 0.00 | 0.00 | 0.00 | 60 | 1007.1 |
| 20260505183804 | 74 | 128 | 5.2 | 7.0 | 0.00 | 0.00 | 0.00 | 57 | 1007.1 |
| 20260505183303 | 74 | 148 | 1.7 | 2.6 | 0.00 | 0.00 | 0.00 | 58 | 1007.1 |
| 20260505182804 | 74 | 148 | 0.0 | 5.2 | 0.00 | 0.00 | 0.00 | 59 | 1007.1 |
| 20260505182306 | 75 | 146 | 4.3 | 7.0 | 0.00 | 0.00 | 0.00 | 59 | 1007.1 |
| 20260505181303 | 75 | 156 | 4.3 | 7.0 | 0.00 | 0.00 | 0.00 | 57 | 1007.1 |
| 20260505175803 | 75 | 142 | 7.8 | 8.7 | 0.00 | 0.00 | 0.00 | 57 | 1007.1 |
| 20260505175305 | 76 | 141 | 7.8 | 12.2 | 0.00 | 0.00 | 0.00 | 57 | 1007.0 |
| 20260505174804 | 76 | 146 | 5.2 | 10.4 | 0.00 | 0.00 | 0.00 | 57 | 1007.0 |
| 20260505174305 | 76 | 105 | 5.2 | 11.3 | 0.00 | 0.00 | 0.00 | 56 | 1007.0 |
| 20260505173805 | 76 | 144 | 6.1 | 10.4 | 0.00 | 0.00 | 0.00 | 55 | 1007.0 |
| 20260505173305 | 76 | 83 | 5.2 | 10.4 | 0.00 | 0.00 | 0.00 | 54 | 1007.0 |
| 20260505172806 | 77 | 79 | 7.8 | 11.3 | 0.00 | 0.00 | 0.00 | 54 | 1007.0 |
| 20260505171805 | 76 | 148 | 7.0 | 10.4 | 0.00 | 0.00 | 0.00 | 54 | 1007.0 |
| 20260505171304 | 76 | 153 | 2.6 | 7.0 | 0.00 | 0.00 | 0.00 | 56 | 1007.0 |
| 20260505170805 | 76 | 155 | 4.3 | 10.4 | 0.00 | 0.00 | 0.00 | 59 | 1006.9 |
| 20260505170304 | 76 | 128 | 5.2 | 10.4 | 0.00 | 0.00 | 0.00 | 61 | 1006.9 |
| 20260505165306 | 76 | 142 | 4.3 | 8.7 | 0.00 | 0.00 | 0.00 | 62 | 1007.1 |
| 20260505164805 | 75 | 140 | 7.8 | 10.4 | 0.00 | 0.00 | 0.00 | 63 | 1007.1 |
| 20260505164305 | 75 | 169 | 4.3 | 7.8 | 0.00 | 0.00 | 0.00 | 63 | 1007.1 |
| 20260505163804 | 76 | 150 | 6.1 | 10.4 | 0.00 | 0.00 | 0.00 | 62 | 1007.2 |
| 20260505163305 | 76 | 124 | 5.2 | 12.2 | 0.00 | 0.00 | 0.00 | 61 | 1007.2 |
| 20260505162805 | 77 | 142 | 6.1 | 14.8 | 0.00 | 0.00 | 0.00 | 60 | 1007.2 |
| 20260505162307 | 77 | 122 | 10.4 | 13.0 | 0.00 | 0.00 | 0.00 | 59 | 1007.1 |
| 20260505161804 | 77 | 53 | 7.0 | 14.8 | 0.00 | 0.00 | 0.00 | 61 | 1007.2 |
| 20260505161305 | 76 | 122 | 9.6 | 13.9 | 0.00 | 0.00 | 0.00 | 61 | 1007.2 |
| 20260505160805 | 76 | 16 | 10.4 | 17.4 | 0.00 | 0.00 | 0.00 | 60 | 1007.2 |
| 20260505160304 | 77 | 11 | 8.7 | 13.9 | 0.00 | 0.00 | 0.00 | 59 | 1007.2 |
| 20260505153305 | 78 | 98 | 7.8 | 12.2 | 0.00 | 0.00 | 0.00 | 55 | 1007.2 |
| 20260505152805 | 78 | 114 | 8.7 | 17.4 | 0.00 | 0.00 | 0.00 | 55 | 1007.3 |
| 20260505152305 | 78 | 119 | 10.4 | 17.4 | 0.00 | 0.00 | 0.00 | 55 | 1007.3 |
| 20260505151805 | 78 | 73 | 9.6 | 14.8 | 0.00 | 0.00 | 0.00 | 55 | 1007.3 |
| 20260505151304 | 78 | 94 | 7.8 | 13.0 | 0.00 | 0.00 | 0.00 | 55 | 1007.3 |
| 20260505150805 | 78 | 136 | 8.7 | 17.4 | 0.00 | 0.00 | 0.00 | 55 | 1007.4 |
| 20260505150305 | 78 | 105 | 7.8 | 12.2 | 0.00 | 0.00 | 0.00 | 53 | 1007.5 |
| 20260505140305 | 77 | 116 | 7.0 | 11.3 | 0.00 | 0.00 | 0.00 | 46 | 1008.1 |
| 20260505124804 | 79 | 33 | 7.8 | 15.6 | 0.00 | 0.00 | 0.00 | 42 | 1008.5 |
| 20260505124305 | 80 | 95 | 8.7 | 13.9 | 0.00 | 0.00 | 0.00 | 43 | 1008.5 |
| 20260505123804 | 80 | 128 | 5.2 | 10.4 | 0.00 | 0.00 | 0.00 | 42 | 1008.5 |
| 20260505123304 | 79 | 152 | 5.2 | 10.4 | 0.00 | 0.00 | 0.00 | 40 | 1008.5 |
| 20260505122805 | 78 | 179 | 4.3 | 7.0 | 0.00 | 0.00 | 0.00 | 44 | 1008.6 |
| 20260505122306 | 79 | 166 | 4.3 | 7.0 | 0.00 | 0.00 | 0.00 | 41 | 1008.7 |
| 20260505121804 | 79 | 180 | 0.9 | 2.6 | 0.00 | 0.00 | 0.00 | 30 | 1008.6 |
| 20260505120305 | 80 | 300 | 5.2 | 11.3 | 0.00 | 0.00 | 0.00 | 30 | 1008.8 |
| 20260505115804 | 80 | 242 | 4.3 | 10.4 | 0.00 | 0.01 | 0.00 | 31 | 1008.8 |
| 20260505115305 | 80 | 266 | 5.2 | 10.4 | 0.00 | 0.01 | 0.00 | 30 | 1008.8 |
| 20260505114804 | 79 | 290 | 2.6 | 7.8 | 0.00 | 0.01 | 0.00 | 31 | 1008.8 |
| 20260505114304 | 79 | 248 | 3.5 | 7.0 | 0.00 | 0.01 | 0.00 | 30 | 1009.0 |
| 20260505113804 | 79 | 217 | 2.6 | 6.1 | 0.00 | 0.01 | 0.00 | 29 | 1009.0 |
| 20260505113305 | 79 | 258 | 3.5 | 10.4 | 0.00 | 0.01 | 0.00 | 30 | 1009.1 |
| 20260505112805 | 79 | 349 | 3.5 | 11.3 | 0.00 | 0.01 | 0.00 | 30 | 1009.1 |
| 20260505112305 | 79 | 314 | 4.3 | 7.8 | 0.00 | 0.01 | 0.00 | 31 | 1009.2 |
| 20260505111804 | 79 | 270 | 2.6 | 7.0 | 0.00 | 0.01 | 0.00 | 31 | 1009.3 |
| 20260505111304 | 79 | 220 | 4.3 | 7.8 | 0.00 | 0.01 | 0.00 | 31 | 1009.4 |
| 20260505110305 | 79 | 315 | 5.2 | 10.4 | 0.00 | 0.01 | 0.00 | 32 | 1009.4 |
| 20260505101804 | 77 | 287 | 2.6 | 10.4 | 0.00 | 0.01 | 0.00 | 33 | 1009.8 |
| 20260505101304 | 76 | 357 | 5.2 | 10.4 | 0.00 | 0.01 | 0.00 | 34 | 1009.8 |
| 20260505100804 | 77 | 323 | 2.6 | 7.8 | 0.00 | 0.01 | 0.00 | 40 | 1009.7 |
| 20260505100305 | 76 | 242 | 1.7 | 6.1 | 0.00 | 0.02 | 0.00 | 40 | 1009.8 |
| 20260505095804 | 75 | 271 | 5.2 | 10.4 | 0.00 | 0.02 | 0.00 | 40 | 1009.9 |
| 20260505095305 | 75 | 254 | 1.7 | 6.1 | 0.00 | 0.03 | 0.00 | 38 | 1009.9 |
| 20260505094805 | 74 | 261 | 2.6 | 7.8 | 0.00 | 0.03 | 0.00 | 44 | 1009.9 |
| 20260505093804 | 74 | 234 | 1.7 | 6.1 | 0.00 | 0.03 | 0.00 | 46 | 1010.1 |
| 20260505093304 | 74 | 356 | 2.6 | 7.0 | 0.00 | 0.03 | 0.00 | 45 | 1010.0 |
| 20260505091804 | 72 | 351 | 3.5 | 8.7 | 0.00 | 0.03 | 0.00 | 48 | 1010.0 |
| 20260505091305 | 72 | 344 | 4.3 | 7.8 | 0.00 | 0.04 | 0.00 | 49 | 1010.0 |
| 20260505090804 | 71 | 313 | 2.6 | 6.1 | 0.00 | 0.05 | 0.00 | 50 | 1010.1 |
| 20260505090304 | 71 | 251 | 2.6 | 6.1 | 0.00 | 0.07 | 0.00 | 51 | 1010.0 |
| 20260505085804 | 71 | 241 | 3.5 | 7.8 | 0.00 | 0.10 | 0.00 | 52 | 1010.1 |
| 20260505085305 | 71 | 252 | 2.6 | 7.0 | 0.00 | 0.16 | 0.00 | 50 | 1010.1 |
| 20260505084804 | 72 | 323 | 3.5 | 7.0 | 0.00 | 0.18 | 0.00 | 51 | 1010.2 |
| 20260505084305 | 71 | 261 | 4.3 | 7.0 | 0.00 | 0.18 | 0.00 | 51 | 1010.2 |
| 20260505083804 | 70 | 324 | 2.6 | 6.1 | 0.00 | 0.18 | 0.00 | 52 | 1010.2 |
| 20260505082804 | 70 | 264 | 1.7 | 6.1 | 0.00 | 0.18 | 0.00 | 54 | 1010.2 |
| 20260505082305 | 70 | 253 | 4.3 | 7.8 | 0.00 | 0.18 | 0.00 | 53 | 1010.3 |
| 20260505081804 | 70 | 240 | 2.6 | 7.0 | 0.00 | 0.18 | 0.00 | 54 | 1010.3 |
| 20260505080804 | 69 | 241 | 1.7 | 6.1 | 0.00 | 0.18 | 0.00 | 56 | 1010.3 |
| 20260505080305 | 68 | 316 | 2.6 | 7.8 | 0.00 | 0.18 | 0.00 | 57 | 1010.3 |
| 20260505075304 | 68 | 276 | 2.6 | 5.2 | 0.00 | 0.18 | 0.00 | 57 | 1010.4 |
| 20260505074804 | 68 | 353 | 2.6 | 6.1 | 0.00 | 0.18 | 0.00 | 59 | 1010.4 |
| 20260505074304 | 67 | 356 | 2.6 | 6.1 | 0.00 | 0.18 | 0.00 | 59 | 1010.4 |
| 20260505073804 | 67 | 253 | 2.6 | 7.0 | 0.00 | 0.18 | 0.00 | 61 | 1010.4 |
| 20260505072804 | 66 | 253 | 1.7 | 4.3 | 0.00 | 0.18 | 0.00 | 64 | 1010.4 |
| 20260505072305 | 66 | 244 | 2.6 | 6.1 | 0.00 | 0.18 | 0.00 | 63 | 1010.4 |
| 20260505071805 | 66 | 345 | 3.5 | 6.1 | 0.00 | 0.18 | 0.00 | 64 | 1010.4 |
| 20260505070804 | 66 | 281 | 1.7 | 7.8 | 0.00 | 0.18 | 0.00 | 68 | 1010.4 |
| 20260505070304 | 65 | 273 | 3.5 | 7.0 | 0.00 | 0.18 | 0.00 | 68 | 1010.4 |
| 20260505065804 | 65 | 292 | 1.7 | 5.2 | 0.00 | 0.18 | 0.00 | 70 | 1010.5 |
| 20260505065304 | 64 | 322 | 4.3 | 7.8 | 0.00 | 0.18 | 0.00 | 72 | 1010.4 |
| 20260505064805 | 64 | 244 | 1.7 | 4.3 | 0.00 | 0.18 | 0.00 | 74 | 1010.4 |
| 20260505063804 | 63 | 263 | 2.6 | 6.1 | 0.00 | 0.18 | 0.00 | 81 | 1010.4 |
| 20260505063305 | 63 | 247 | 1.7 | 5.2 | 0.00 | 0.18 | 0.00 | 83 | 1010.3 |
| 20260505062804 | 62 | 255 | 1.7 | 4.3 | 0.00 | 0.18 | 0.00 | 84 | 1010.3 |
| 20260505062304 | 62 | 256 | 1.7 | 5.2 | 0.00 | 0.18 | 0.00 | 85 | 1010.3 |
| 20260505061304 | 62 | 256 | 1.7 | 4.3 | 0.00 | 0.18 | 0.00 | 87 | 1010.2 |
| 20260505060804 | 61 | 254 | 1.7 | 2.6 | 0.00 | 0.18 | 0.00 | 87 | 1010.2 |
| 20260505060304 | 61 | 259 | 2.6 | 4.3 | 0.00 | 0.18 | 0.00 | 88 | 1010.2 |
| 20260505055804 | 61 | 254 | 1.7 | 5.2 | 0.00 | 0.18 | 0.00 | 88 | 1010.2 |